Regional Weather Roundup
Issued by NWS Upton, NY

Current Version | Previous Version | Graphics & Text | Print | Product List | Glossary Off
Versions: 1 2 3 4 5 6 7 8 9 10 11 12 13 14 15 16 17 18 19 20 21 22 23 24 25 26 27 28 29 30 31 32 33 34 35 36 37 38 39 40 41 42 43 44 45 46 47 48 49 50

000
ASUS41 KOKX 171605
RWROKX

REGIONAL WEATHER ROUNDUP
NATIONAL WEATHER SERVICE NEW YORK NY
1200 PM EDT WED SEP 17 2014

NOTE: "FAIR" INDICATES FEW OR NO CLOUDS BELOW 12,000 FEET WITH NO
SIGNIFICANT WEATHER AND/OR OBSTRUCTIONS TO VISIBILITY.

NYZ071-072-176-178-NJZ106-104-171700-
NEW YORK CITY METRO AREA


CITY           SKY/WX    TMP DP  RH WIND       PRES   REMARKS
CENTRAL PARK   SUNNY     69  40  34 VRB7      30.07F
LAGUARDIA APRT MOSUNNY   70  40  33 VRB7      30.03F
KENNEDY INTL   MOSUNNY   70  42  36 CALM      30.04F
NEWARK/LIBERTY MOSUNNY   71  41  33 NW9       30.04F
BRNX BOT. GARD   N/A     66  39  37 SW2       30.04F
TETERBORO      SUNNY     70  39  32 CALM      30.03F
$$

NYZ177-179-078>081-171700-
LONG ISLAND NEW YORK

CITY           SKY/WX    TMP DP  RH WIND       PRES   REMARKS
FARMINGDALE    SUNNY     69  43  38 NE5       30.04F
ISLIP          MOSUNNY   67  42  40 N5        30.02F
SHIRLEY        SUNNY     68  43  40 VRB7      30.04F
WESTHAMPTON    SUNNY     69  44  40 NW10      30.04F
MONTAUK POINT    N/A     66  48  52 VRB5      30.03F
$$

NYZ052-065-067-171700-
HUDSON VALLEY

CITY           SKY/WX    TMP DP  RH WIND       PRES   REMARKS
WHITE PLAINS   MOSUNNY   66  41  40 VRB3      30.04F
NEWBURGH       SUNNY     64  46  52 CALM      30.06F
MONTGOMERY     MOSUNNY   65  45  48 CALM      30.04F
POUGHKEEPSIE   SUNNY     67  45  45 CALM      30.03F
ALBANY         PTSUNNY   63  45  51 CALM      30.03F
$$

NJZ001-105-106-008-010-013-015-019>022-104-171700-
NEW JERSEY

CITY           SKY/WX    TMP DP  RH WIND       PRES   REMARKS
NEWARK/LIBERTY MOSUNNY   71  41  33 NW9       30.04F
TETERBORO      SUNNY     70  39  32 CALM      30.03F
CALDWELL       PTSUNNY   67  41  38 NE5       30.05F
MORRISTOWN     MOSUNNY   70  43  37 NE6       30.05F
SOMERVILLE     MOSUNNY   70  41  34 NW6       30.03F
LINDEN         FAIR      73  44  35 W8        30.06F
SUSSEX         PTSUNNY   68  47  46 CALM      30.05F
ANDOVER          N/A     66  44  45 VRB3      30.06F
TRENTON        MOSUNNY   68  44  42 SE5       30.04F
MILLVILLE      MOSUNNY   72  44  36 NW8       30.04F
ATLANTIC CITY  SUNNY     73  47  39 N6        30.03F
WRIGHTSTOWN    SUNNY     69  49  48 N6        30.02F
TOMS RIVER     MOSUNNY   68  46  45 CALM      30.04F
BELMAR         MOSUNNY   66  46  48 N5        30.04F
$$

PAZ047>061-062-071-171700-
EASTERN PENNSYLVANIA

CITY           SKY/WX    TMP DP  RH WIND       PRES   REMARKS
PHILADELPHIA   MOSUNNY   71  47  42 VRB5      30.05F
ALLENTOWN      MOSUNNY   68  45  43 CALM      30.06F
SCRANTON       SUNNY     63  47  55 SW7       30.06F
$$

CTZ002-004>006-009-010-012-RIZ004-006-007-MAZ004-011-015-171700-
SOUTHERN NEW ENGLAND
 IN CT

CITY           SKY/WX    TMP DP  RH WIND       PRES   REMARKS
BRADLEY INTL   MOSUNNY   67  45  45 CALM      30.02F
HARTFORD       SUNNY     65  44  46 MISG      30.02F
DANBURY        SUNNY     65  42  43 W8        30.05F
WTRBRY/OXFORD  PTSUNNY   63  45  51 VRB5      30.05F
BRIDGEPORT     SUNNY     68  42  38 CALM      30.03F
MERIDEN        SUNNY     67  40  37 W6        30.03F
NEW HAVEN      MOSUNNY   69  41  36 NE6       30.03F
CHESTER        FAIR      64  41  42 NW10      30.03F
GROTON         SUNNY     68  42  38 MISG      30.01F
WILLIMANTIC    SUNNY     67  42  40 NW8       30.02F

 IN RI

CITY           SKY/WX    TMP DP  RH WIND       PRES   REMARKS
PROVIDENCE     MOSUNNY   69  42  37 W5        30.01F
BLOCK ISLAND   SUNNY     66  46  48 N6        30.02F
WESTERLY       SUNNY     69  40  34 CALM      30.02F

 IN MA

CITY           SKY/WX    TMP DP  RH WIND       PRES   REMARKS
BOSTON         MOSUNNY   67  48  50 SE9       30.00F
WORCESTER      SUNNY     62  41  46 W8        30.02F
WESTFIELD      MOSUNNY   67  43  41 NW12      30.02F
PROVINCETOWN   SUNNY     64  55  72 NW6       30.01F
NANTUCKET      SUNNY     68  55  63 S8        30.01S
$$

ANZ330-335-338-340-345-350-353-355-171700-
COASTAL MARINE OBSERVATIONS


STATION/POSITION TIME  SKY/WX   TEMP    WIND        PRES    VSBY  WAVE
                                AIR SEA DIR/SP/G                  HT/PER
                 (UTC)          (F)     (DEG/KT/KT) (MB)    (MI)  (FT/S)
NY HARB ENTRANCE NOT AVBL
4S FIRE IS       NOT AVBL
23SW MTP         1600                                 N/A           4/14
HUDSON CANYON    1600            66 74   20/ 10/ 12 1016.4          4/13
EXECUTION ROCKS  1600            65 71  120/  4/  6   N/A
WESTERN LI SOUND 1600            64     160/  2/  4   N/A           0
CENTRAL LI SOUND 1500            64 71  350/  6/ 10   N/A
EASTERN LI SOUND 1500            67 69  360/  4/  6   N/A
ROBBINS REEF     1600            65     360/  6/  9 1016.2
$$


>>>>>>>>>>>>>>>>>>>>>>>>>>>> KEY <<<<<<<<<<<<<<<<<<<<<<<<<<<
>                                                          <
>     SKY/WX - SKY CONDITION/PRESENT WEATHER               <
>     TMP    - TEMPERATURE IN FAHRENHEIT                   <
>     DP     - DEWPOINT IN FAHRENHEIT                      <
>     RH     - RELATIVE HUMIDITY IN PERCENT                <
>     WIND   - DIRECTION AND SPEED IN MPH                  <
>     PRES   - MEAN SEA LEVEL PRESSURE IN INCHES OF HG     <
>     WCI    - WIND CHILL INDEX                            <
>     VSB    - VISIBILITY IN MILES                         <
>     HX     - HEAT INDEX                                  <
>     TC     - TEMPERATURE IN CELSIUS                      <
>     VRB    - VARIABLE WIND DIRECTION                     <
>                                                          <
>>>>>>>>>>>>>>>>>>>>>>>>>>>> KEY <<<<<<<<<<<<<<<<<<<<<<<<<<<





USA.gov is the U.S. government's official web portal to all federal, state and local government web resources and services.